Location: Berlin
(38.3226°N, 75.2177°W)
Time: 23:17:29
(UTC+00:00)

ALOS - Pass Details

Date: 26 October 2020
Orbit: 683 x 685 km, 97.9° (Epoch: 25 November)

Event Time Altitude Azimuth Distance (km) Brightness Sun altitude
Rises 10:27:09 0° 359° (N) 3,054 5.5 -11.2°
Reaches altitude 10° 10:29:40 10° 348° (NNW) 2,135 4.6 -10.8°
Maximum altitude 10:33:34 27° 291° (WNW) 1,301 3.2 -10.0°
Drops below altitude 10° 10:37:28 10° 234° (SW) 2,123 4.4 -9.2°
Sets 10:39:57 0° 222° (SW) 3,034 5.3 -8.8°
